Weather History for Oceana NAS, VA

Change the Weather History Date:

Saturday, December 21, 2013

  Actual Average Record
Temperature  
Mean Temperature 64 °F -  
Max Temperature 73 °F 48 °F 73 °F (2013)
Min Temperature 55 °F 32 °F 19 °F (1996)
Degree Days  
Heating Degree Days 1    
Growing Degree Days 14 (Base 50)    
Moisture  
Dew Point 58 °F    
Average Humidity 79    
Maximum Humidity 93    
Minimum Humidity 57    
Precipitation  
Precipitation 0.00 in - - ()
Sea Level Pressure  
Sea Level Pressure 30.11 in    
Wind  
Wind Speed 12 mph (SSW)    
Max Wind Speed 18 mph    
Max Gust Speed 29 mph    
Visibility 10 miles    
Events      
Averages and records for this station are not official NWS values.
T = Trace of Precipitation, MM = Missing Value Source: NWS Daily Summary

Daily Weather History Graph

Daily Weather History Graph

Search for Another Location

Airport:

Trip Planner

Search our weather history database for the weather conditions in past years. The results will help you decide how hot, cold, wet, or windy it might be!

Date:

Astronomy

Dec. 21, 2013 Rise Set
Actual Time 7:13 AM EST 4:51 PM EST
Civil Twilight 6:44 AM EST 5:20 PM EST
Nautical Twilight 6:11 AM EST 5:53 PM EST
Astronomical Twilight 5:40 AM EST 6:24 PM EST
Moon 9:00 PM EST (12/21) 9:43 AM EST (12/21)
Length of Visible Light 10h 36m
Length of Day
9h 38m
Waning Gibbous, 84% of the Moon is Illuminated
Dec 21
Waning Gibbous
Dec 25
Last Quarter
Jan 1
New
Jan 7
First Quarter
Jan 15
Full

Hourly Weather History & Observations

Time (EST) Temp. Dew Point Humidity Pressure Visibility Wind Dir Wind Speed Gust Speed Precip Events Conditions
12:56 AM 59.0 °F 55.0 °F 87% 30.14 in 10.0 mi SW 10.4 mph - N/A   Overcast
1:56 AM 59.0 °F 55.0 °F 87% 30.14 in 10.0 mi SSW 12.7 mph - N/A   Overcast
2:56 AM 57.9 °F 54.0 °F 87% 30.13 in 10.0 mi SSW 8.1 mph - N/A   Overcast
3:56 AM 59.0 °F 54.0 °F 83% 30.12 in 10.0 mi SW 10.4 mph - N/A   Overcast
4:56 AM 57.0 °F 54.0 °F 89% 30.12 in 10.0 mi SW 9.2 mph - N/A   Mostly Cloudy
5:56 AM 55.0 °F 53.1 °F 93% 30.13 in 10.0 mi SW 9.2 mph - N/A   Overcast
6:56 AM 57.0 °F 54.0 °F 89% 30.14 in 10.0 mi SSW 9.2 mph - N/A   Scattered Clouds
7:56 AM 55.9 °F 54.0 °F 93% 30.16 in 10.0 mi South 8.1 mph - N/A   Scattered Clouds
8:56 AM 57.9 °F 55.0 °F 90% 30.15 in 10.0 mi South 10.4 mph - N/A   Mostly Cloudy
9:56 AM 63.0 °F 55.9 °F 78% 30.17 in 10.0 mi SSW 12.7 mph 21.9 mph N/A   Mostly Cloudy
10:56 AM 66.0 °F 55.9 °F 70% 30.15 in 10.0 mi SSW 13.8 mph - N/A   Mostly Cloudy
11:56 AM 69.1 °F 57.0 °F 65% 30.12 in 10.0 mi SSW 16.1 mph 21.9 mph N/A   Mostly Cloudy
12:56 PM 72.0 °F 57.0 °F 59% 30.09 in 10.0 mi SSW 13.8 mph - N/A   Mostly Cloudy
1:56 PM 72.0 °F 55.9 °F 57% 30.08 in 10.0 mi SSW 18.4 mph 26.5 mph N/A   Mostly Cloudy
2:56 PM 73.0 °F 57.0 °F 57% 30.07 in 10.0 mi SSW 18.4 mph 25.3 mph N/A   Mostly Cloudy
3:56 PM 71.1 °F 57.9 °F 63% 30.07 in 10.0 mi SSW 13.8 mph - N/A   Mostly Cloudy
4:56 PM 69.1 °F 60.1 °F 73% 30.07 in 10.0 mi South 11.5 mph - N/A   Mostly Cloudy
5:56 PM 68.0 °F 62.1 °F 81% 30.09 in 10.0 mi South 9.2 mph - N/A   Mostly Cloudy
6:56 PM 68.0 °F 62.1 °F 81% 30.09 in 10.0 mi South 12.7 mph - N/A   Mostly Cloudy
7:56 PM 68.0 °F 62.1 °F 81% 30.09 in 10.0 mi SSW 15.0 mph 25.3 mph N/A   Mostly Cloudy
8:56 PM 68.0 °F 62.1 °F 81% 30.09 in 10.0 mi SSW 15.0 mph - N/A   Mostly Cloudy
9:56 PM 68.0 °F 62.1 °F 81% 30.08 in 10.0 mi SSW 16.1 mph 28.8 mph N/A   Scattered Clouds
10:56 PM 68.0 °F 63.0 °F 84% 30.08 in 10.0 mi SSW 13.8 mph 24.2 mph N/A   Mostly Cloudy
11:56 PM 68.0 °F 63.0 °F 84% 30.08 in 10.0 mi SSW 17.3 mph 25.3 mph N/A   Mostly Cloudy